owner,sensor,date,latitude,longitude,vertical_datum,sea_water_temperature,qcFlag 
TCOON,ioos:station:TCOON:013:1,2014-08-01T00:12:00Z,27.4847,-97.3181,0.0,31.2,2 
TCOON,ioos:station:TCOON:013:1,2014-08-01T01:12:00Z,27.4847,-97.3181,0.0,30.6,2 
TCOON,ioos:station:TCOON:013:1,2014-08-01T02:12:00Z,27.4847,-97.3181,0.0,29.7,2 
TCOON,ioos:station:TCOON:013:1,2014-08-01T03:12:00Z,27.4847,-97.3181,0.0,29.6,2 
TCOON,ioos:station:TCOON:013:1,2014-08-01T04:12:00Z,27.4847,-97.3181,0.0,29.1,2 
TCOON,ioos:station:TCOON:013:1,2014-08-01T05:12:00Z,27.4847,-97.3181,0.0,28.6,2 
TCOON,ioos:station:TCOON:013:1,2014-08-01T06:42:00Z,27.4847,-97.3181,0.0,28.5,2 
TCOON,ioos:station:TCOON:013:1,2014-08-01T07:06:00Z,27.4847,-97.3181,0.0,28.4,2 
TCOON,ioos:station:TCOON:013:1,2014-08-01T08:12:00Z,27.4847,-97.3181,0.0,28.3,2 
TCOON,ioos:station:TCOON:013:1,2014-08-01T09:12:00Z,27.4847,-97.3181,0.0,28.2,2 
TCOON,ioos:station:TCOON:013:1,2014-08-01T10:12:00Z,27.4847,-97.3181,0.0,27.9,2 
TCOON,ioos:station:TCOON:013:1,2014-08-01T11:12:00Z,27.4847,-97.3181,0.0,28.2,2 
TCOON,ioos:station:TCOON:013:1,2014-08-01T12:12:00Z,27.4847,-97.3181,0.0,28.0,2 
TCOON,ioos:station:TCOON:013:1,2014-08-01T13:12:00Z,27.4847,-97.3181,0.0,27.9,2 
TCOON,ioos:station:TCOON:013:1,2014-08-01T14:12:00Z,27.4847,-97.3181,0.0,28.0,2 
TCOON,ioos:station:TCOON:013:1,2014-08-01T15:12:00Z,27.4847,-97.3181,0.0,28.4,2 
TCOON,ioos:station:TCOON:013:1,2014-08-01T16:12:00Z,27.4847,-97.3181,0.0,28.9,2 
TCOON,ioos:station:TCOON:013:1,2014-08-01T17:12:00Z,27.4847,-97.3181,0.0,29.2,2 
TCOON,ioos:station:TCOON:013:1,2014-08-01T18:12:00Z,27.4847,-97.3181,0.0,29.7,2 
TCOON,ioos:station:TCOON:013:1,2014-08-01T19:12:00Z,27.4847,-97.3181,0.0,30.2,2 
TCOON,ioos:station:TCOON:013:1,2014-08-01T20:12:00Z,27.4847,-97.3181,0.0,30.2,2 
TCOON,ioos:station:TCOON:013:1,2014-08-01T21:12:00Z,27.4847,-97.3181,0.0,30.2,2 
TCOON,ioos:station:TCOON:013:1,2014-08-01T22:12:00Z,27.4847,-97.3181,0.0,30.4,2 
TCOON,ioos:station:TCOON:013:1,2014-08-01T23:12:00Z,27.4847,-97.3181,0.0,30.2,2 
TCOON,ioos:station:TCOON:013:1,2014-08-02T00:12:00Z,27.4847,-97.3181,0.0,29.8,2 
TCOON,ioos:station:TCOON:013:1,2014-08-02T01:12:00Z,27.4847,-97.3181,0.0,29.5,2 
TCOON,ioos:station:TCOON:013:1,2014-08-02T02:12:00Z,27.4847,-97.3181,0.0,29.1,2 
TCOON,ioos:station:TCOON:013:1,2014-08-02T03:12:00Z,27.4847,-97.3181,0.0,29.0,2 
TCOON,ioos:station:TCOON:013:1,2014-08-02T04:12:00Z,27.4847,-97.3181,0.0,28.8,2 
TCOON,ioos:station:TCOON:013:1,2014-08-02T05:12:00Z,27.4847,-97.3181,0.0,28.7,2 
TCOON,ioos:station:TCOON:013:1,2014-08-02T06:12:00Z,27.4847,-97.3181,0.0,28.6,2 
TCOON,ioos:station:TCOON:013:1,2014-08-02T07:30:00Z,27.4847,-97.3181,0.0,28.9,2 
TCOON,ioos:station:TCOON:013:1,2014-08-02T08:12:00Z,27.4847,-97.3181,0.0,29.0,2 
TCOON,ioos:station:TCOON:013:1,2014-08-02T09:12:00Z,27.4847,-97.3181,0.0,29.1,2 
TCOON,ioos:station:TCOON:013:1,2014-08-02T10:12:00Z,27.4847,-97.3181,0.0,29.0,2 
TCOON,ioos:station:TCOON:013:1,2014-08-02T11:18:00Z,27.4847,-97.3181,0.0,28.9,2 
TCOON,ioos:station:TCOON:013:1,2014-08-02T12:12:00Z,27.4847,-97.3181,0.0,28.7,2 
TCOON,ioos:station:TCOON:013:1,2014-08-02T13:12:00Z,27.4847,-97.3181,0.0,28.7,2 
TCOON,ioos:station:TCOON:013:1,2014-08-02T14:12:00Z,27.4847,-97.3181,0.0,28.7,2 
TCOON,ioos:station:TCOON:013:1,2014-08-02T15:12:00Z,27.4847,-97.3181,0.0,28.4,2 
TCOON,ioos:station:TCOON:013:1,2014-08-02T16:06:00Z,27.4847,-97.3181,0.0,28.5,2 
TCOON,ioos:station:TCOON:013:1,2014-08-02T17:12:00Z,27.4847,-97.3181,0.0,28.6,2 
TCOON,ioos:station:TCOON:013:1,2014-08-02T18:12:00Z,27.4847,-97.3181,0.0,29.1,2 
TCOON,ioos:station:TCOON:013:1,2014-08-02T19:12:00Z,27.4847,-97.3181,0.0,29.5,2 
TCOON,ioos:station:TCOON:013:1,2014-08-02T20:12:00Z,27.4847,-97.3181,0.0,29.7,2 
TCOON,ioos:station:TCOON:013:1,2014-08-02T21:12:00Z,27.4847,-97.3181,0.0,29.8,2 
TCOON,ioos:station:TCOON:013:1,2014-08-02T22:12:00Z,27.4847,-97.3181,0.0,29.8,2 
TCOON,ioos:station:TCOON:013:1,2014-08-02T23:12:00Z,27.4847,-97.3181,0.0,29.8,2 
TCOON,ioos:station:TCOON:013:1,2014-08-03T00:12:00Z,27.4847,-97.3181,0.0,29.6,2 
TCOON,ioos:station:TCOON:013:1,2014-08-03T01:12:00Z,27.4847,-97.3181,0.0,29.3,2 
TCOON,ioos:station:TCOON:013:1,2014-08-03T02:12:00Z,27.4847,-97.3181,0.0,29.1,2 
TCOON,ioos:station:TCOON:013:1,2014-08-03T03:12:00Z,27.4847,-97.3181,0.0,29.1,2 
TCOON,ioos:station:TCOON:013:1,2014-08-03T04:12:00Z,27.4847,-97.3181,0.0,28.8,2 
TCOON,ioos:station:TCOON:013:1,2014-08-03T05:12:00Z,27.4847,-97.3181,0.0,28.5,2 
TCOON,ioos:station:TCOON:013:1,2014-08-03T06:36:00Z,27.4847,-97.3181,0.0,28.3,2 
TCOON,ioos:station:TCOON:013:1,2014-08-03T07:06:00Z,27.4847,-97.3181,0.0,28.3,2 
TCOON,ioos:station:TCOON:013:1,2014-08-03T08:12:00Z,27.4847,-97.3181,0.0,28.1,2 
TCOON,ioos:station:TCOON:013:1,2014-08-03T09:12:00Z,27.4847,-97.3181,0.0,28.0,2 
TCOON,ioos:station:TCOON:013:1,2014-08-03T10:12:00Z,27.4847,-97.3181,0.0,27.9,2 
TCOON,ioos:station:TCOON:013:1,2014-08-03T11:12:00Z,27.4847,-97.3181,0.0,27.7,2 
TCOON,ioos:station:TCOON:013:1,2014-08-03T12:12:00Z,27.4847,-97.3181,0.0,27.5,2 
TCOON,ioos:station:TCOON:013:1,2014-08-03T13:12:00Z,27.4847,-97.3181,0.0,27.5,2 
TCOON,ioos:station:TCOON:013:1,2014-08-03T14:12:00Z,27.4847,-97.3181,0.0,27.7,2 
TCOON,ioos:station:TCOON:013:1,2014-08-03T15:12:00Z,27.4847,-97.3181,0.0,28.1,2 
TCOON,ioos:station:TCOON:013:1,2014-08-03T16:12:00Z,27.4847,-97.3181,0.0,28.8,2 
TCOON,ioos:station:TCOON:013:1,2014-08-03T17:12:00Z,27.4847,-97.3181,0.0,29.6,2 
TCOON,ioos:station:TCOON:013:1,2014-08-03T18:12:00Z,27.4847,-97.3181,0.0,30.2,2 
TCOON,ioos:station:TCOON:013:1,2014-08-03T19:12:00Z,27.4847,-97.3181,0.0,30.9,2 
TCOON,ioos:station:TCOON:013:1,2014-08-03T20:12:00Z,27.4847,-97.3181,0.0,31.6,2 
TCOON,ioos:station:TCOON:013:1,2014-08-03T21:12:00Z,27.4847,-97.3181,0.0,31.9,2 
TCOON,ioos:station:TCOON:013:1,2014-08-03T22:18:00Z,27.4847,-97.3181,0.0,32.0,2 
TCOON,ioos:station:TCOON:013:1,2014-08-03T23:12:00Z,27.4847,-97.3181,0.0,32.1,2 
TCOON,ioos:station:TCOON:013:1,2014-08-04T00:12:00Z,27.4847,-97.3181,0.0,31.8,2 
TCOON,ioos:station:TCOON:013:1,2014-08-04T01:12:00Z,27.4847,-97.3181,0.0,31.3,2 
TCOON,ioos:station:TCOON:013:1,2014-08-04T02:12:00Z,27.4847,-97.3181,0.0,30.8,2 
TCOON,ioos:station:TCOON:013:1,2014-08-04T03:12:00Z,27.4847,-97.3181,0.0,30.5,2 
TCOON,ioos:station:TCOON:013:1,2014-08-04T04:12:00Z,27.4847,-97.3181,0.0,30.2,2 
TCOON,ioos:station:TCOON:013:1,2014-08-04T05:12:00Z,27.4847,-97.3181,0.0,29.8,2 
TCOON,ioos:station:TCOON:013:1,2014-08-04T06:42:00Z,27.4847,-97.3181,0.0,29.4,2 
TCOON,ioos:station:TCOON:013:1,2014-08-04T07:12:00Z,27.4847,-97.3181,0.0,29.3,2 
TCOON,ioos:station:TCOON:013:1,2014-08-04T08:12:00Z,27.4847,-97.3181,0.0,29.1,2 
TCOON,ioos:station:TCOON:013:1,2014-08-04T09:12:00Z,27.4847,-97.3181,0.0,28.8,2 
TCOON,ioos:station:TCOON:013:1,2014-08-04T10:12:00Z,27.4847,-97.3181,0.0,28.9,2 
TCOON,ioos:station:TCOON:013:1,2014-08-04T11:12:00Z,27.4847,-97.3181,0.0,28.7,2 
TCOON,ioos:station:TCOON:013:1,2014-08-04T12:12:00Z,27.4847,-97.3181,0.0,28.5,2 
TCOON,ioos:station:TCOON:013:1,2014-08-04T13:12:00Z,27.4847,-97.3181,0.0,28.6,2 
TCOON,ioos:station:TCOON:013:1,2014-08-04T14:12:00Z,27.4847,-97.3181,0.0,28.9,2 
TCOON,ioos:station:TCOON:013:1,2014-08-04T15:06:00Z,27.4847,-97.3181,0.0,29.3,2 
TCOON,ioos:station:TCOON:013:1,2014-08-04T16:12:00Z,27.4847,-97.3181,0.0,29.7,2 
TCOON,ioos:station:TCOON:013:1,2014-08-04T17:12:00Z,27.4847,-97.3181,0.0,30.3,2 
TCOON,ioos:station:TCOON:013:1,2014-08-04T18:12:00Z,27.4847,-97.3181,0.0,30.9,2 
TCOON,ioos:station:TCOON:013:1,2014-08-04T19:12:00Z,27.4847,-97.3181,0.0,31.4,2 
TCOON,ioos:station:TCOON:013:1,2014-08-04T20:06:00Z,27.4847,-97.3181,0.0,31.5,2 
TCOON,ioos:station:TCOON:013:1,2014-08-04T21:12:00Z,27.4847,-97.3181,0.0,31.5,2 
TCOON,ioos:station:TCOON:013:1,2014-08-04T22:12:00Z,27.4847,-97.3181,0.0,31.2,2 
TCOON,ioos:station:TCOON:013:1,2014-08-04T23:12:00Z,27.4847,-97.3181,0.0,31.5,2 
TCOON,ioos:station:TCOON:013:1,2014-08-05T00:12:00Z,27.4847,-97.3181,0.0,31.3,2 
TCOON,ioos:station:TCOON:013:1,2014-08-05T01:12:00Z,27.4847,-97.3181,0.0,30.9,2 
TCOON,ioos:station:TCOON:013:1,2014-08-05T02:12:00Z,27.4847,-97.3181,0.0,30.5,2 
TCOON,ioos:station:TCOON:013:1,2014-08-05T03:12:00Z,27.4847,-97.3181,0.0,30.3,2 
TCOON,ioos:station:TCOON:013:1,2014-08-05T04:12:00Z,27.4847,-97.3181,0.0,30.0,2 
TCOON,ioos:station:TCOON:013:1,2014-08-05T05:12:00Z,27.4847,-97.3181,0.0,30.0,2 
TCOON,ioos:station:TCOON:013:1,2014-08-05T06:12:00Z,27.4847,-97.3181,0.0,29.8,2 
TCOON,ioos:station:TCOON:013:1,2014-08-05T07:12:00Z,27.4847,-97.3181,0.0,29.7,2 
TCOON,ioos:station:TCOON:013:1,2014-08-05T08:12:00Z,27.4847,-97.3181,0.0,29.7,2 
TCOON,ioos:station:TCOON:013:1,2014-08-05T09:12:00Z,27.4847,-97.3181,0.0,29.6,2 
TCOON,ioos:station:TCOON:013:1,2014-08-05T10:12:00Z,27.4847,-97.3181,0.0,29.5,2 
TCOON,ioos:station:TCOON:013:1,2014-08-05T11:12:00Z,27.4847,-97.3181,0.0,29.4,2 
TCOON,ioos:station:TCOON:013:1,2014-08-05T12:18:00Z,27.4847,-97.3181,0.0,29.3,2 
TCOON,ioos:station:TCOON:013:1,2014-08-05T13:12:00Z,27.4847,-97.3181,0.0,29.3,2 
TCOON,ioos:station:TCOON:013:1,2014-08-05T14:12:00Z,27.4847,-97.3181,0.0,29.4,2 
TCOON,ioos:station:TCOON:013:1,2014-08-05T15:12:00Z,27.4847,-97.3181,0.0,29.5,2 
TCOON,ioos:station:TCOON:013:1,2014-08-05T16:12:00Z,27.4847,-97.3181,0.0,30.0,2 
TCOON,ioos:station:TCOON:013:1,2014-08-05T17:12:00Z,27.4847,-97.3181,0.0,30.7,2 
TCOON,ioos:station:TCOON:013:1,2014-08-05T18:12:00Z,27.4847,-97.3181,0.0,31.4,2 
TCOON,ioos:station:TCOON:013:1,2014-08-05T19:12:00Z,27.4847,-97.3181,0.0,32.0,2 
TCOON,ioos:station:TCOON:013:1,2014-08-05T20:12:00Z,27.4847,-97.3181,0.0,32.5,2 
TCOON,ioos:station:TCOON:013:1,2014-08-05T21:18:00Z,27.4847,-97.3181,0.0,32.9,2 
TCOON,ioos:station:TCOON:013:1,2014-08-05T22:12:00Z,27.4847,-97.3181,0.0,32.9,2 
TCOON,ioos:station:TCOON:013:1,2014-08-05T23:12:00Z,27.4847,-97.3181,0.0,32.6,2 
TCOON,ioos:station:TCOON:013:1,2014-08-06T00:12:00Z,27.4847,-97.3181,0.0,32.2,2 
TCOON,ioos:station:TCOON:013:1,2014-08-06T01:12:00Z,27.4847,-97.3181,0.0,31.3,2 
TCOON,ioos:station:TCOON:013:1,2014-08-06T02:12:00Z,27.4847,-97.3181,0.0,30.9,2 
TCOON,ioos:station:TCOON:013:1,2014-08-06T03:18:00Z,27.4847,-97.3181,0.0,30.9,2 
TCOON,ioos:station:TCOON:013:1,2014-08-06T04:12:00Z,27.4847,-97.3181,0.0,31.0,2 
TCOON,ioos:station:TCOON:013:1,2014-08-06T05:12:00Z,27.4847,-97.3181,0.0,30.7,2 
TCOON,ioos:station:TCOON:013:1,2014-08-06T06:36:00Z,27.4847,-97.3181,0.0,30.4,2 
TCOON,ioos:station:TCOON:013:1,2014-08-06T07:12:00Z,27.4847,-97.3181,0.0,30.3,2 
TCOON,ioos:station:TCOON:013:1,2014-08-06T08:12:00Z,27.4847,-97.3181,0.0,30.0,2 
TCOON,ioos:station:TCOON:013:1,2014-08-06T09:12:00Z,27.4847,-97.3181,0.0,29.7,2 
TCOON,ioos:station:TCOON:013:1,2014-08-06T10:12:00Z,27.4847,-97.3181,0.0,29.5,2 
TCOON,ioos:station:TCOON:013:1,2014-08-06T11:06:00Z,27.4847,-97.3181,0.0,29.5,2 
TCOON,ioos:station:TCOON:013:1,2014-08-06T12:12:00Z,27.4847,-97.3181,0.0,29.5,2 
TCOON,ioos:station:TCOON:013:1,2014-08-06T13:12:00Z,27.4847,-97.3181,0.0,29.4,2 
TCOON,ioos:station:TCOON:013:1,2014-08-06T14:12:00Z,27.4847,-97.3181,0.0,29.6,2 
TCOON,ioos:station:TCOON:013:1,2014-08-06T15:12:00Z,27.4847,-97.3181,0.0,30.0,2 
TCOON,ioos:station:TCOON:013:1,2014-08-06T16:12:00Z,27.4847,-97.3181,0.0,30.2,2 
TCOON,ioos:station:TCOON:013:1,2014-08-06T17:12:00Z,27.4847,-97.3181,0.0,30.7,2 
TCOON,ioos:station:TCOON:013:1,2014-08-06T18:12:00Z,27.4847,-97.3181,0.0,31.4,2 
TCOON,ioos:station:TCOON:013:1,2014-08-06T19:12:00Z,27.4847,-97.3181,0.0,31.8,2 
TCOON,ioos:station:TCOON:013:1,2014-08-06T20:12:00Z,27.4847,-97.3181,0.0,32.1,2 
TCOON,ioos:station:TCOON:013:1,2014-08-06T21:12:00Z,27.4847,-97.3181,0.0,32.3,2 
TCOON,ioos:station:TCOON:013:1,2014-08-06T22:12:00Z,27.4847,-97.3181,0.0,32.6,2 
TCOON,ioos:station:TCOON:013:1,2014-08-06T23:12:00Z,27.4847,-97.3181,0.0,32.5,2 
TCOON,ioos:station:TCOON:013:1,2014-08-07T00:12:00Z,27.4847,-97.3181,0.0,32.4,2 
TCOON,ioos:station:TCOON:013:1,2014-08-07T01:12:00Z,27.4847,-97.3181,0.0,32.1,2 
TCOON,ioos:station:TCOON:013:1,2014-08-07T02:12:00Z,27.4847,-97.3181,0.0,31.8,2 
TCOON,ioos:station:TCOON:013:1,2014-08-07T03:12:00Z,27.4847,-97.3181,0.0,31.4,2 
TCOON,ioos:station:TCOON:013:1,2014-08-07T04:12:00Z,27.4847,-97.3181,0.0,30.9,2 
TCOON,ioos:station:TCOON:013:1,2014-08-07T05:12:00Z,27.4847,-97.3181,0.0,30.6,2 
TCOON,ioos:station:TCOON:013:1,2014-08-07T06:42:00Z,27.4847,-97.3181,0.0,30.1,2 
TCOON,ioos:station:TCOON:013:1,2014-08-07T07:12:00Z,27.4847,-97.3181,0.0,30.0,2 
TCOON,ioos:station:TCOON:013:1,2014-08-07T08:12:00Z,27.4847,-97.3181,0.0,29.9,2 
TCOON,ioos:station:TCOON:013:1,2014-08-07T09:12:00Z,27.4847,-97.3181,0.0,29.7,2 
TCOON,ioos:station:TCOON:013:1,2014-08-07T10:12:00Z,27.4847,-97.3181,0.0,29.5,2 
TCOON,ioos:station:TCOON:013:1,2014-08-07T11:12:00Z,27.4847,-97.3181,0.0,29.3,2 
TCOON,ioos:station:TCOON:013:1,2014-08-07T12:06:00Z,27.4847,-97.3181,0.0,29.1,2 
TCOON,ioos:station:TCOON:013:1,2014-08-07T13:06:00Z,27.4847,-97.3181,0.0,29.0,2 
TCOON,ioos:station:TCOON:013:1,2014-08-07T14:12:00Z,27.4847,-97.3181,0.0,29.1,2 
TCOON,ioos:station:TCOON:013:1,2014-08-07T15:12:00Z,27.4847,-97.3181,0.0,29.4,2 
TCOON,ioos:station:TCOON:013:1,2014-08-07T16:12:00Z,27.4847,-97.3181,0.0,30.0,2 
TCOON,ioos:station:TCOON:013:1,2014-08-07T17:12:00Z,27.4847,-97.3181,0.0,30.7,2 
TCOON,ioos:station:TCOON:013:1,2014-08-07T18:12:00Z,27.4847,-97.3181,0.0,31.4,2 
TCOON,ioos:station:TCOON:013:1,2014-08-07T19:12:00Z,27.4847,-97.3181,0.0,31.9,2 
TCOON,ioos:station:TCOON:013:1,2014-08-07T20:12:00Z,27.4847,-97.3181,0.0,32.3,2 
TCOON,ioos:station:TCOON:013:1,2014-08-07T21:12:00Z,27.4847,-97.3181,0.0,32.5,2 
TCOON,ioos:station:TCOON:013:1,2014-08-07T22:12:00Z,27.4847,-97.3181,0.0,32.6,2 
TCOON,ioos:station:TCOON:013:1,2014-08-07T23:18:00Z,27.4847,-97.3181,0.0,32.6,2 
TCOON,ioos:station:TCOON:013:1,2014-08-08T00:12:00Z,27.4847,-97.3181,0.0,32.4,2 
TCOON,ioos:station:TCOON:013:1,2014-08-08T01:12:00Z,27.4847,-97.3181,0.0,32.0,2 
TCOON,ioos:station:TCOON:013:1,2014-08-08T02:06:00Z,27.4847,-97.3181,0.0,31.6,2 
TCOON,ioos:station:TCOON:013:1,2014-08-08T03:12:00Z,27.4847,-97.3181,0.0,31.2,2 
TCOON,ioos:station:TCOON:013:1,2014-08-08T04:12:00Z,27.4847,-97.3181,0.0,30.8,2 
TCOON,ioos:station:TCOON:013:1,2014-08-08T05:12:00Z,27.4847,-97.3181,0.0,30.4,2 
TCOON,ioos:station:TCOON:013:1,2014-08-08T06:36:00Z,27.4847,-97.3181,0.0,30.0,2 
TCOON,ioos:station:TCOON:013:1,2014-08-08T07:12:00Z,27.4847,-97.3181,0.0,29.8,2 
TCOON,ioos:station:TCOON:013:1,2014-08-08T08:12:00Z,27.4847,-97.3181,0.0,29.6,2 
TCOON,ioos:station:TCOON:013:1,2014-08-08T09:12:00Z,27.4847,-97.3181,0.0,29.4,2 
TCOON,ioos:station:TCOON:013:1,2014-08-08T10:12:00Z,27.4847,-97.3181,0.0,29.2,2 
TCOON,ioos:station:TCOON:013:1,2014-08-08T11:12:00Z,27.4847,-97.3181,0.0,29.1,2 
TCOON,ioos:station:TCOON:013:1,2014-08-08T12:12:00Z,27.4847,-97.3181,0.0,29.0,2 
TCOON,ioos:station:TCOON:013:1,2014-08-08T13:12:00Z,27.4847,-97.3181,0.0,29.0,2 
TCOON,ioos:station:TCOON:013:1,2014-08-08T14:12:00Z,27.4847,-97.3181,0.0,29.2,2 
TCOON,ioos:station:TCOON:013:1,2014-08-08T15:12:00Z,27.4847,-97.3181,0.0,29.5,2 
TCOON,ioos:station:TCOON:013:1,2014-08-08T16:12:00Z,27.4847,-97.3181,0.0,29.9,2 
TCOON,ioos:station:TCOON:013:1,2014-08-08T17:12:00Z,27.4847,-97.3181,0.0,30.6,2 
TCOON,ioos:station:TCOON:013:1,2014-08-08T18:12:00Z,27.4847,-97.3181,0.0,31.2,2 
TCOON,ioos:station:TCOON:013:1,2014-08-08T19:42:00Z,27.4847,-97.3181,0.0,31.5,2 
TCOON,ioos:station:TCOON:013:1,2014-08-08T20:12:00Z,27.4847,-97.3181,0.0,31.7,2 
TCOON,ioos:station:TCOON:013:1,2014-08-08T21:12:00Z,27.4847,-97.3181,0.0,31.8,2 
TCOON,ioos:station:TCOON:013:1,2014-08-08T22:12:00Z,27.4847,-97.3181,0.0,31.9,2 
TCOON,ioos:station:TCOON:013:1,2014-08-08T23:12:00Z,27.4847,-97.3181,0.0,31.9,2 
TCOON,ioos:station:TCOON:013:1,2014-08-09T00:12:00Z,27.4847,-97.3181,0.0,31.5,2 
TCOON,ioos:station:TCOON:013:1,2014-08-09T01:12:00Z,27.4847,-97.3181,0.0,31.0,2 
TCOON,ioos:station:TCOON:013:1,2014-08-09T02:12:00Z,27.4847,-97.3181,0.0,30.7,2 
TCOON,ioos:station:TCOON:013:1,2014-08-09T03:12:00Z,27.4847,-97.3181,0.0,30.7,2 
TCOON,ioos:station:TCOON:013:1,2014-08-09T04:12:00Z,27.4847,-97.3181,0.0,30.5,2 
TCOON,ioos:station:TCOON:013:1,2014-08-09T05:12:00Z,27.4847,-97.3181,0.0,30.2,2 
TCOON,ioos:station:TCOON:013:1,2014-08-09T06:12:00Z,27.4847,-97.3181,0.0,29.9,2 
TCOON,ioos:station:TCOON:013:1,2014-08-09T07:12:00Z,27.4847,-97.3181,0.0,29.7,2 
TCOON,ioos:station:TCOON:013:1,2014-08-09T08:12:00Z,27.4847,-97.3181,0.0,29.5,2 
TCOON,ioos:station:TCOON:013:1,2014-08-09T09:18:00Z,27.4847,-97.3181,0.0,29.4,2 
TCOON,ioos:station:TCOON:013:1,2014-08-09T10:12:00Z,27.4847,-97.3181,0.0,29.2,2 
TCOON,ioos:station:TCOON:013:1,2014-08-09T11:12:00Z,27.4847,-97.3181,0.0,29.1,2 
TCOON,ioos:station:TCOON:013:1,2014-08-09T12:12:00Z,27.4847,-97.3181,0.0,29.0,2 
TCOON,ioos:station:TCOON:013:1,2014-08-09T13:12:00Z,27.4847,-97.3181,0.0,29.1,2 
TCOON,ioos:station:TCOON:013:1,2014-08-09T14:12:00Z,27.4847,-97.3181,0.0,29.2,2 
TCOON,ioos:station:TCOON:013:1,2014-08-09T15:12:00Z,27.4847,-97.3181,0.0,29.5,2 
TCOON,ioos:station:TCOON:013:1,2014-08-09T16:12:00Z,27.4847,-97.3181,0.0,30.1,2 
TCOON,ioos:station:TCOON:013:1,2014-08-09T17:12:00Z,27.4847,-97.3181,0.0,30.8,2 
TCOON,ioos:station:TCOON:013:1,2014-08-09T18:18:00Z,27.4847,-97.3181,0.0,31.5,2 
TCOON,ioos:station:TCOON:013:1,2014-08-09T19:12:00Z,27.4847,-97.3181,0.0,32.0,2 
TCOON,ioos:station:TCOON:013:1,2014-08-09T20:12:00Z,27.4847,-97.3181,0.0,32.3,2 
TCOON,ioos:station:TCOON:013:1,2014-08-09T21:12:00Z,27.4847,-97.3181,0.0,32.4,2 
TCOON,ioos:station:TCOON:013:1,2014-08-09T22:12:00Z,27.4847,-97.3181,0.0,32.5,2 
TCOON,ioos:station:TCOON:013:1,2014-08-09T23:12:00Z,27.4847,-97.3181,0.0,32.4,2 
TCOON,ioos:station:TCOON:013:1,2014-08-10T00:12:00Z,27.4847,-97.3181,0.0,32.1,2 
TCOON,ioos:station:TCOON:013:1,2014-08-10T01:06:00Z,27.4847,-97.3181,0.0,31.8,2 
TCOON,ioos:station:TCOON:013:1,2014-08-10T02:12:00Z,27.4847,-97.3181,0.0,31.5,2 
TCOON,ioos:station:TCOON:013:1,2014-08-10T03:12:00Z,27.4847,-97.3181,0.0,31.3,2 
TCOON,ioos:station:TCOON:013:1,2014-08-10T04:12:00Z,27.4847,-97.3181,0.0,31.0,2 
TCOON,ioos:station:TCOON:013:1,2014-08-10T05:12:00Z,27.4847,-97.3181,0.0,30.9,2 
TCOON,ioos:station:TCOON:013:1,2014-08-10T06:42:00Z,27.4847,-97.3181,0.0,30.6,2 
TCOON,ioos:station:TCOON:013:1,2014-08-10T07:12:00Z,27.4847,-97.3181,0.0,30.5,2 
TCOON,ioos:station:TCOON:013:1,2014-08-10T08:12:00Z,27.4847,-97.3181,0.0,30.3,2 
TCOON,ioos:station:TCOON:013:1,2014-08-10T09:12:00Z,27.4847,-97.3181,0.0,29.9,2 
TCOON,ioos:station:TCOON:013:1,2014-08-10T10:12:00Z,27.4847,-97.3181,0.0,29.8,2 
TCOON,ioos:station:TCOON:013:1,2014-08-10T11:12:00Z,27.4847,-97.3181,0.0,29.6,2 
TCOON,ioos:station:TCOON:013:1,2014-08-10T12:12:00Z,27.4847,-97.3181,0.0,29.5,2 
TCOON,ioos:station:TCOON:013:1,2014-08-10T13:06:00Z,27.4847,-97.3181,0.0,29.5,2 
TCOON,ioos:station:TCOON:013:1,2014-08-10T14:12:00Z,27.4847,-97.3181,0.0,29.6,2 
TCOON,ioos:station:TCOON:013:1,2014-08-10T15:12:00Z,27.4847,-97.3181,0.0,30.0,2 
TCOON,ioos:station:TCOON:013:1,2014-08-10T16:30:00Z,27.4847,-97.3181,0.0,30.8,2 
TCOON,ioos:station:TCOON:013:1,2014-08-10T17:12:00Z,27.4847,-97.3181,0.0,31.1,2 
TCOON,ioos:station:TCOON:013:1,2014-08-10T18:12:00Z,27.4847,-97.3181,0.0,31.9,2 
TCOON,ioos:station:TCOON:013:1,2014-08-10T19:12:00Z,27.4847,-97.3181,0.0,32.5,2 
TCOON,ioos:station:TCOON:013:1,2014-08-10T20:24:00Z,27.4847,-97.3181,0.0,33.2,2 
TCOON,ioos:station:TCOON:013:1,2014-08-10T21:12:00Z,27.4847,-97.3181,0.0,33.4,2 
TCOON,ioos:station:TCOON:013:1,2014-08-10T22:12:00Z,27.4847,-97.3181,0.0,33.3,2 
TCOON,ioos:station:TCOON:013:1,2014-08-10T23:12:00Z,27.4847,-97.3181,0.0,33.6,2 
TCOON,ioos:station:TCOON:013:1,2014-08-11T00:12:00Z,27.4847,-97.3181,0.0,33.4,2 
TCOON,ioos:station:TCOON:013:1,2014-08-11T01:12:00Z,27.4847,-97.3181,0.0,32.6,2 
TCOON,ioos:station:TCOON:013:1,2014-08-11T02:12:00Z,27.4847,-97.3181,0.0,32.1,2 
TCOON,ioos:station:TCOON:013:1,2014-08-11T03:12:00Z,27.4847,-97.3181,0.0,31.8,2 
TCOON,ioos:station:TCOON:013:1,2014-08-11T04:12:00Z,27.4847,-97.3181,0.0,31.6,2 
TCOON,ioos:station:TCOON:013:1,2014-08-11T05:12:00Z,27.4847,-97.3181,0.0,31.3,2 
TCOON,ioos:station:TCOON:013:1,2014-08-11T06:12:00Z,27.4847,-97.3181,0.0,31.1,2 
TCOON,ioos:station:TCOON:013:1,2014-08-11T07:12:00Z,27.4847,-97.3181,0.0,30.9,2 
TCOON,ioos:station:TCOON:013:1,2014-08-11T08:12:00Z,27.4847,-97.3181,0.0,30.7,2 
TCOON,ioos:station:TCOON:013:1,2014-08-11T09:12:00Z,27.4847,-97.3181,0.0,30.6,2 
TCOON,ioos:station:TCOON:013:1,2014-08-11T10:12:00Z,27.4847,-97.3181,0.0,30.4,2 
TCOON,ioos:station:TCOON:013:1,2014-08-11T11:12:00Z,27.4847,-97.3181,0.0,30.2,2 
TCOON,ioos:station:TCOON:013:1,2014-08-11T12:12:00Z,27.4847,-97.3181,0.0,30.0,2 
TCOON,ioos:station:TCOON:013:1,2014-08-11T13:12:00Z,27.4847,-97.3181,0.0,29.9,2 
TCOON,ioos:station:TCOON:013:1,2014-08-11T14:12:00Z,27.4847,-97.3181,0.0,30.0,2 
TCOON,ioos:station:TCOON:013:1,2014-08-11T15:12:00Z,27.4847,-97.3181,0.0,30.4,2 
TCOON,ioos:station:TCOON:013:1,2014-08-11T16:12:00Z,27.4847,-97.3181,0.0,31.1,2 
TCOON,ioos:station:TCOON:013:1,2014-08-11T17:18:00Z,27.4847,-97.3181,0.0,31.8,2 
TCOON,ioos:station:TCOON:013:1,2014-08-11T18:06:00Z,27.4847,-97.3181,0.0,32.1,2 
TCOON,ioos:station:TCOON:013:1,2014-08-11T19:12:00Z,27.4847,-97.3181,0.0,32.3,2 
TCOON,ioos:station:TCOON:013:1,2014-08-11T20:12:00Z,27.4847,-97.3181,0.0,32.3,2 
TCOON,ioos:station:TCOON:013:1,2014-08-12T00:06:00Z,27.4847,-97.3181,0.0,32.0,2 
TCOON,ioos:station:TCOON:013:1,2014-08-12T01:06:00Z,27.4847,-97.3181,0.0,31.8,2 
TCOON,ioos:station:TCOON:013:1,2014-08-12T02:12:00Z,27.4847,-97.3181,0.0,31.5,2 
TCOON,ioos:station:TCOON:013:1,2014-08-12T03:12:00Z,27.4847,-97.3181,0.0,31.3,2 
TCOON,ioos:station:TCOON:013:1,2014-08-12T04:12:00Z,27.4847,-97.3181,0.0,31.1,2 
TCOON,ioos:station:TCOON:013:1,2014-08-12T05:12:00Z,27.4847,-97.3181,0.0,30.9,2 
TCOON,ioos:station:TCOON:013:1,2014-08-12T06:36:00Z,27.4847,-97.3181,0.0,30.7,2 
TCOON,ioos:station:TCOON:013:1,2014-08-12T07:12:00Z,27.4847,-97.3181,0.0,30.7,2 
TCOON,ioos:station:TCOON:013:1,2014-08-12T08:06:00Z,27.4847,-97.3181,0.0,30.6,2 
TCOON,ioos:station:TCOON:013:1,2014-08-12T09:12:00Z,27.4847,-97.3181,0.0,30.5,2 
TCOON,ioos:station:TCOON:013:1,2014-08-12T10:12:00Z,27.4847,-97.3181,0.0,30.3,2 
TCOON,ioos:station:TCOON:013:1,2014-08-12T11:12:00Z,27.4847,-97.3181,0.0,30.1,2 
TCOON,ioos:station:TCOON:013:1,2014-08-12T12:12:00Z,27.4847,-97.3181,0.0,29.8,2 
TCOON,ioos:station:TCOON:013:1,2014-08-12T16:12:00Z,27.4847,-97.3181,0.0,30.7,2 
TCOON,ioos:station:TCOON:013:1,2014-08-12T17:12:00Z,27.4847,-97.3181,0.0,31.3,2 
TCOON,ioos:station:TCOON:013:1,2014-08-19T14:12:00Z,27.4847,-97.3181,0.0,28.3,2 
TCOON,ioos:station:TCOON:013:1,2014-08-19T15:12:00Z,27.4847,-97.3181,0.0,28.7,2 
TCOON,ioos:station:TCOON:013:1,2014-08-19T16:12:00Z,27.4847,-97.3181,0.0,29.4,2 
TCOON,ioos:station:TCOON:013:1,2014-08-19T17:12:00Z,27.4847,-97.3181,0.0,29.9,2 
TCOON,ioos:station:TCOON:013:1,2014-08-19T18:12:00Z,27.4847,-97.3181,0.0,30.6,2 
TCOON,ioos:station:TCOON:013:1,2014-08-19T19:12:00Z,27.4847,-97.3181,0.0,31.2,2 
TCOON,ioos:station:TCOON:013:1,2014-08-19T20:12:00Z,27.4847,-97.3181,0.0,31.6,2 
TCOON,ioos:station:TCOON:013:1,2014-08-19T21:12:00Z,27.4847,-97.3181,0.0,31.8,2 
TCOON,ioos:station:TCOON:013:1,2014-08-19T22:18:00Z,27.4847,-97.3181,0.0,31.9,2 
TCOON,ioos:station:TCOON:013:1,2014-08-19T23:18:00Z,27.4847,-97.3181,0.0,31.8,2 
TCOON,ioos:station:TCOON:013:1,2014-08-20T00:18:00Z,27.4847,-97.3181,0.0,31.6,2 
TCOON,ioos:station:TCOON:013:1,2014-08-20T01:12:00Z,27.4847,-97.3181,0.0,31.3,2 
TCOON,ioos:station:TCOON:013:1,2014-08-20T02:12:00Z,27.4847,-97.3181,0.0,30.9,2 
TCOON,ioos:station:TCOON:013:1,2014-08-20T03:12:00Z,27.4847,-97.3181,0.0,30.6,2 
TCOON,ioos:station:TCOON:013:1,2014-08-20T04:12:00Z,27.4847,-97.3181,0.0,30.2,2 
TCOON,ioos:station:TCOON:013:1,2014-08-20T05:18:00Z,27.4847,-97.3181,0.0,30.0,2 
TCOON,ioos:station:TCOON:013:1,2014-08-20T06:12:00Z,27.4847,-97.3181,0.0,29.8,2 
TCOON,ioos:station:TCOON:013:1,2014-08-20T07:12:00Z,27.4847,-97.3181,0.0,29.6,2 
TCOON,ioos:station:TCOON:013:1,2014-08-20T08:12:00Z,27.4847,-97.3181,0.0,29.4,2 